Probability
0 0 0 0 0 0 0 0 0 0 0 0 0 0 0 0 0 0 0 0 0 0 0 0 0 0 0 0 0 0 0 0 0 0 0 0 0 0 0 0 0 0 0
0 0 0 0 0 0 0 0 0 0 0 0 0 0 0 0 0 0 0 0 0 0 0 0 0 0 0 0 0 0 0 0 0 0 0 0 0 0 0 0 0 0 0
0 0 0 0 0 0 0 0 0 0 0 0 0 0 0 0 0 0 0 0 0 0 0 0 0 0 0 0 0 0 0 0 0 0 0 0 0 0 0 0 0 0 0
0 0 0 0 0 0 0 0 0 0 0 0 0 0 0 0 0 0 0 0 0 0 0 0 0 0 0 0 0 0 0 0 0 0 0 0 0 0 0 0 0 0 0
0 0 0 0 0 0 0 0 0 0 0 0 0 0 0 0 0 0 0 0 0 0 0 0 0 0 0 0 0 0 0 0 0 0 0 0 0 0 0 0 0 0 0
0 0 0 0 0 0 0 0 0 0 0 0 0 0 0 0 0 0 0 0 0 0 0 0 0 0 0 0 0 0 0 0 0 0 0 0 0 0 0 0 0 0 0
0 0 0 0 0 0 0 0 0 0 0 0 0 0 0 0 0 0 0 0 0 0 0 0 0 0 0 0 0 0 0 0 0 0 0 0 0 0 0 0 0 0 0
0 0 0 0 0 0 0 0 0 0 0 0 0 0 0 0 0 0 0 0 0 0 0 0 0 0 0 0 0 0 0 0 0 0 0 0 0 0 0 0 0 0 0
0 0 0 0 0 0 0 0 0 0 0 0 0 0 0 0 0 0 0 0 0 0 0 0 0 0 0 0 0 0 0 0 0 0 0 0 0 0 0 0 0 0 0
0 0 0 0 0 0 0 0 0 0 0 0 0 0 0 0 0 0 0 0 0 0 0 0 0 0 0 0 0 0 0 0 0 0 0 0 0 0 0 0 0 0 0
0 0 0 0 0 0 0 0 0 0 0 0 0 0 0 0 0 0 0 0 0 0 0 0 0 0 0 0 0 0 0 0 0 0 0 0 0 0 0 0 0 0 0
0 0 0 0 0 0 0 0 0 0 0 0 0 0 0 0 0 0 0 0 0 0 0 0 0 0 0 0 0 0 0 0 0 0 0 0 0 0 0 0 0 0 0
0 0 0 0 0 0 0 0 0 0 0 0 0 0 0 0 0 0 0 0 0 0 0 0 0 0 0 0 0 0 0 0 0 0 0 0 0 0 0 0 0 0 0
0 0 0 0 0 0 0 0 0 0 0 0 0 0 0 0 0 0 0 0 0 0 0 0 0 0 0 0 0 0 0 0 0 0 0 0 0 0 0 0 0 0 0
0 0 0 0 0 0 0 0 0 0 0 0 0 0 0 0 0 0 0 0 0 0 0 0 0 0 0 0 0 0 0 0 0 0 0 0 0 0 0 0 0 0 0
0 0 0 0 0 0 0 0 0 0 0 0 0 0 0 0 0 0 0 0 0 0 0 0 0 0 0 0 0 0 0 0 0 0 0 0 0 0 0 0 0 0 0
0 0 0 0 0 0 0 0 0 0 0 0 0 0 0 0 0 0 0 0 0 0 0 0 0 0 0 0 0 0 0 0 0 0 0 0 0 0 0 0 0 0 0
0 0 0 0 0 0 0 0 0 0 0 0 0 0 0 0 0 0 0 0 0 0 0 0 0 0 0 0 0 0 0 0 0 0 0 0 0 0 0 0 0 0 0
0 0 0 0 0 0 0 0 0 0 0 0 0 0 0 0 0 0 0 0 0 0 0 0 0 0 0 0 0 0 0 0 0 0 0 0 0 0 0 0 0 0 0
0 0 0 0 0 0 0 0 0 0 0 0 0 0 0 0 0 0 0 0 0 0 0 0 0 0 0 0 0 0 0 0 0 0 0 0 0 0 0 0 0 0 0
0 0 0 0 0 0 0 0 0 0 0 0 0 0 0 0 0 0 0 0 0 0 0 0 0 0 0 0 0 0 0 0 0 0 0 0 0 0 0 0 0 0 0
0 0 0 0 0 0 0 0 0 0 0 0 0 0 0 0 0 0 0 0 0 0 0 0 0 0 0 0 0 0 0 0 0 0 0 0 0 0 0 0 0 0 0
0 0 0 0 0 0 0 0 0 0 0 0 0 0 0 0 0 0 0 0 0 0 0 0 0 0 0 0 0 0 0 0 0 0 0 0 0 0 0 0 0 0 0
0 0 0 0 0 0 0 0 0 0 0 0 0 0 0 0 0 0 0 0 0 0 0 0 0 0 0 0 0 0 0 0 0 0 0 0 0 0 0 0 0 0 0
0 0 0 0 0 0 0 0 0 0 0 0 0 0 0 0 0 0 0 0 0 0 0 0 0 0 0 0 0 0 0 0 0 0 0 0 0 0 0 0 0 0 0
0 0 0 0 0 0 0 0 0 0 0 0 0 0 0 0 0 0 0 0 0 0 0 0 0 0 0 0 0 0 0 0 0 0 0 0 0 0 0 0 0 0 0
Height
5682 5683 5684 5685 5686 5687 5687 5688 5689 5690 5690 5690 5690 5690 5691 5692 5692 5692 5692 5692 5692 5691 5691 5690 5690 5689 5689 5688 5687 5686 5685 5684 5684 5684 5682 5681 5680 5680 5679 5678 5677 5675 5674
5673 5674 5674 5675 5676 5677 5677 5678 5678 5679 5679 5679 5680 5680 5680 5681 5681 5681 5681 5681 5680 5680 5680 5679 5679 5678 5678 5677 5677 5676 5675 5674 5673 5673 5672 5671 5670 5669 5668 5667 5666 5665 5664
5662 5663 5664 5665 5665 5666 5666 5666 5667 5667 5668 5668 5669 5669 5669 5669 5669 5669 5669 5669 5668 5668 5668 5667 5667 5667 5667 5666 5666 5665 5664 5663 5662 5662 5661 5660 5659 5658 5657 5656 5655 5654 5653
5652 5652 5653 5653 5654 5654 5654 5655 5655 5656 5656 5657 5657 5657 5657 5657 5657 5657 5657 5656 5656 5656 5655 5655 5655 5655 5655 5654 5654 5654 5653 5652 5651 5650 5649 5649 5648 5647 5646 5645 5644 5643 5642
5640 5641 5641 5642 5642 5642 5643 5643 5644 5644 5645 5645 5645 5645 5645 5645 5645 5644 5644 5644 5643 5643 5643 5643 5642 5642 5642 5642 5642 5642 5641 5640 5639 5638 5637 5637 5636 5635 5635 5634 5633 5631 5630
5628 5629 5629 5629 5630 5630 5630 5631 5631 5631 5632 5632 5633 5633 5633 5632 5632 5631 5631 5631 5630 5630 5630 5629 5629 5629 5629 5629 5629 5628 5628 5627 5627 5626 5625 5625 5624 5624 5623 5622 5620 5620 5619
5616 5616 5616 5616 5617 5617 5617 5618 5618 5618 5619 5619 5619 5619 5619 5619 5618 5618 5617 5617 5617 5616 5616 5615 5615 5615 5615 5615 5615 5615 5615 5614 5614 5613 5613 5613 5612 5611 5610 5610 5608 5607 5607
5602 5602 5602 5602 5603 5603 5603 5604 5604 5604 5604 5605 5605 5605 5605 5604 5604 5603 5602 5602 5602 5602 5601 5601 5601 5601 5600 5600 5600 5601 5601 5601 5600 5600 5601 5600 5599 5598 5597 5597 5595 5595 5594
5588 5588 5588 5588 5589 5589 5589 5589 5589 5589 5589 5589 5589 5589 5589 5589 5588 5587 5586 5586 5586 5586 5586 5586 5585 5585 5585 5585 5585 5586 5586 5587 5586 5586 5587 5586 5586 5585 5584 5584 5583 5582 5582
5574 5574 5574 5574 5574 5574 5574 5574 5574 5573 5574 5574 5573 5573 5573 5573 5572 5571 5570 5570 5570 5571 5570 5570 5569 5569 5569 5568 5569 5570 5571 5572 5572 5572 5572 5573 5572 5572 5571 5571 5570 5569 5569
5559 5559 5559 5559 5559 5558 5558 5558 5557 5557 5557 5557 5557 5557 5556 5556 5555 5554 5553 5552 5553 5553 5553 5553 5553 5553 5552 5552 5552 5554 5555 5556 5557 5557 5558 5558 5558 5558 5558 5557 5557 5556 5556
5544 5544 5544 5543 5543 5542 5542 5542 5541 5540 5540 5540 5540 5540 5539 5538 5538 5537 5536 5535 5535 5535 5536 5536 5536 5536 5535 5535 5536 5538 5539 5540 5541 5542 5543 5544 5544 5544 5544 5543 5543 5543 5542
5528 5528 5527 5526 5526 5525 5525 5525 5524 5523 5523 5523 5522 5522 5522 5521 5521 5520 5519 5518 5518 5517 5518 5518 5518 5518 5518 5519 5520 5521 5523 5524 5526 5527 5528 5529 5529 5529 5529 5529 5529 5529 5529
5511 5511 5510 5510 5509 5508 5508 5507 5507 5506 5506 5505 5505 5505 5505 5504 5504 5503 5502 5501 5501 5501 5501 5501 5501 5501 5502 5503 5504 5505 5507 5508 5510 5512 5513 5514 5515 5515 5515 5515 5516 5515 5516
5494 5494 5493 5492 5492 5491 5491 5490 5490 5490 5488 5488 5488 5487 5487 5488 5487 5486 5485 5485 5484 5484 5484 5484 5484 5485 5486 5487 5488 5489 5491 5493 5495 5497 5498 5499 5500 5501 5502 5502 5502 5502 5503
5478 5477 5476 5475 5474 5474 5473 5473 5472 5472 5471 5470 5470 5470 5470 5470 5469 5469 5468 5468 5468 5468 5467 5468 5469 5470 5471 5472 5474 5475 5477 5479 5480 5482 5483 5485 5486 5487 5488 5489 5489 5489 5490
5461 5460 5459 5458 5457 5456 5456 5455 5455 5456 5455 5454 5453 5453 5453 5453 5453 5453 5453 5453 5453 5452 5453 5454 5455 5456 5457 5458 5460 5462 5464 5465 5466 5468 5470 5472 5473 5474 5475 5476 5477 5477 5477
5445 5444 5442 5441 5441 5440 5439 5438 5438 5438 5439 5439 5439 5438 5438 5438 5438 5438 5438 5438 5439 5439 5440 5440 5442 5442 5444 5445 5447 5448 5450 5452 5454 5455 5457 5459 5460 5461 5463 5464 5465 5465 5465
5430 5429 5427 5426 5425 5424 5424 5423 5423 5423 5423 5424 5424 5424 5423 5423 5424 5424 5423 5424 5425 5426 5427 5428 5429 5430 5431 5432 5434 5436 5437 5439 5441 5443 5445 5446 5448 5449 5451 5452 5453 5454 5454
5415 5414 5412 5411 5410 5410 5409 5408 5408 5408 5409 5409 5410 5410 5410 5410 5410 5411 5411 5411 5412 5413 5414 5415 5416 5417 5419 5420 5422 5424 5426 5427 5429 5431 5433 5435 5436 5438 5440 5441 5442 5443 5444
5401 5400 5398 5397 5396 5395 5394 5394 5394 5394 5395 5395 5396 5396 5396 5396 5397 5398 5398 5399 5400 5401 5402 5403 5404 5405 5407 5408 5410 5412 5415 5417 5418 5420 5422 5424 5426 5428 5429 5430 5432 5433 5433
5386 5385 5384 5382 5382 5381 5380 5380 5380 5380 5381 5381 5382 5382 5382 5383 5384 5385 5386 5387 5387 5388 5389 5391 5392 5394 5396 5397 5399 5401 5404 5406 5408 5410 5412 5414 5416 5418 5419 5421 5422 5423 5424
5372 5370 5369 5368 5368 5367 5367 5366 5367 5367 5367 5367 5368 5369 5370 5371 5372 5373 5374 5375 5376 5377 5378 5380 5381 5383 5385 5387 5389 5391 5394 5396 5399 5401 5403 5405 5406 5408 5410 5411 5412 5413 5414
5358 5357 5356 5355 5354 5354 5353 5354 5354 5354 5354 5355 5356 5357 5358 5359 5360 5361 5362 5364 5365 5367 5368 5369 5371 5373 5375 5377 5379 5382 5384 5387 5389 5391 5393 5395 5397 5399 5401 5402 5403 5405 5405
5345 5344 5343 5342 5342 5342 5342 5342 5342 5342 5343 5343 5344 5345 5346 5347 5349 5350 5352 5353 5355 5356 5358 5360 5362 5364 5366 5368 5371 5373 5375 5378 5380 5382 5385 5387 5389 5391 5392 5394 5395 5396 5397
5334 5332 5332 5331 5331 5330 5330 5331 5331 5331 5332 5333 5333 5334 5335 5337 5338 5340 5341 5343 5345 5347 5349 5351 5353 5355 5358 5360 5363 5365 5367 5370 5372 5374 5376 5379 5381 5383 5384 5386 5387 5388 5389
Wind_Speed
37 37 37 37 38 38 39 39 40 40 39 39 39 39 40 41 41 41 41 42 41 41 41 41 41 40 40 41 41 40 40 40 40 39 39 40 40 40 40 41 41 41 41
38 39 39 39 39 40 41 41 42 41 41 41 40 40 41 41 42 43 43 43 43 43 43 43 43 42 42 41 41 41 41 41 41 41 40 40 41 40 41 41 41 42 42
39 40 40 41 40 40 41 42 43 43 43 42 41 41 42 42 42 44 44 44 44 44 44 44 44 43 42 42 41 41 41 42 42 42 42 42 42 41 41 41 42 42 42
39 40 40 40 41 42 42 42 43 43 43 42 42 41 42 42 43 44 44 44 44 44 44 44 44 43 43 42 42 42 42 42 42 43 43 42 42 42 42 42 42 42 42
40 41 41 42 42 43 43 43 43 44 44 44 43 43 43 43 43 43 44 44 44 44 44 44 44 44 44 44 44 44 44 44 43 43 43 43 42 42 43 43 43 43 42
42 42 43 43 44 44 44 44 44 45 45 45 45 45 45 45 45 45 45 45 45 45 45 45 45 45 45 45 46 46 45 45 44 44 43 43 43 43 43 43 43 43 43
44 44 44 45 45 46 46 46 46 46 47 47 47 47 47 47 47 47 47 47 47 48 47 47 47 47 47 47 47 47 47 46 46 45 44 43 44 44 44 43 43 43 43
45 45 45 45 46 46 47 48 48 49 49 49 49 49 49 49 50 50 50 50 50 49 49 49 49 48 48 49 49 48 48 47 46 46 45 44 44 44 44 44 44 44 43
46 47 46 46 47 47 48 49 49 50 51 51 52 52 52 52 52 52 52 52 51 51 51 51 51 50 50 51 51 50 49 48 47 47 46 46 45 45 44 44 44 44 44
47 48 48 48 49 49 50 51 52 52 53 53 53 54 54 54 54 54 54 54 53 53 52 52 52 52 52 53 53 51 50 49 48 48 47 46 46 46 46 45 44 44 44
49 49 50 50 51 51 51 52 53 54 54 55 55 55 56 56 56 56 56 56 55 55 54 54 53 53 53 53 53 52 51 50 49 48 48 47 47 47 46 45 45 44 44
50 51 51 52 52 53 53 54 54 55 55 56 56 56 56 57 57 56 56 56 56 55 55 54 54 54 53 53 52 52 51 51 50 49 48 48 47 47 46 45 45 44 44
52 53 53 54 54 55 55 55 55 55 56 56 56 56 55 55 55 55 55 55 55 55 54 53 53 53 52 52 51 51 51 50 50 49 48 47 47 47 46 45 45 45 44
54 54 54 54 54 54 54 54 55 55 55 55 55 54 54 54 53 54 54 53 53 53 52 52 51 50 50 50 50 50 50 50 49 49 48 46 46 46 45 45 44 44 43
53 53 53 53 53 53 53 53 54 54 54 54 53 53 53 52 52 52 52 52 51 51 50 49 48 47 47 47 47 47 47 47 48 47 46 45 45 44 44 43 43 42 42
52 52 53 53 53 54 54 54 54 54 53 53 52 51 50 50 49 49 49 49 48 47 47 46 45 45 44 44 44 44 44 44 45 45 45 44 44 43 42 41 41 41 40
52 52 52 52 53 53 53 53 52 51 50 50 49 48 48 47 47 47 46 45 45 45 44 43 42 42 42 42 42 42 41 41 41 42 42 42 41 41 41 40 39 38 38
50 50 51 51 51 50 49 49 48 47 46 46 45 45 45 45 45 44 44 44 43 42 41 41 40 40 40 39 39 39 39 39 39 39 39 39 39 39 39 38 37 36 36
48 47 48 48 47 47 46 46 46 45 45 44 43 43 44 44 43 43 43 43 42 41 40 39 39 39 39 38 38 38 37 37 37 36 36 37 37 36 36 35 35 34 34
45 45 45 45 45 45 45 44 44 43 43 43 42 42 43 43 42 42 41 41 40 39 39 39 39 38 38 37 37 36 35 35 35 35 35 34 34 34 33 33 33 32 32
44 43 43 43 43 43 43 43 42 42 42 42 42 41 41 41 40 40 40 39 39 39 39 38 38 37 37 36 35 34 33 33 33 33 33 32 32 32 31 31 31 31 31
43 43 43 43 42 42 41 41 41 41 41 41 40 40 40 40 39 39 38 38 37 37 36 36 35 35 34 33 33 32 32 31 31 31 31 31 30 30 30 30 30 30 30
42 42 41 41 41 40 40 40 39 39 39 39 38 38 39 39 38 37 36 36 35 34 34 33 32 31 30 29 29 30 30 30 30 30 30 30 30 30 30 29 29 29 28
39 39 39 39 39 38 38 37 37 37 37 37 36 36 36 36 35 35 34 34 33 32 31 30 29 28 28 27 28 28 29 29 28 28 28 29 28 28 28 28 27 27 27
36 36 36 35 35 35 35 35 35 35 35 34 34 34 34 33 33 33 33 32 31 30 30 29 28 27 27 27 27 27 27 27 27 27 27 28 27 27 26 26 26 26 26
33 33 33 32 32 31 31 32 32 32 31 31 31 31 31 31 31 30 30 29 29 29 28 27 26 26 26 26 25 25 25 26 26 26 26 27 26 26 25 25 25 25 24
Wind_Direction
257 257 257 259 261 261 261 262 262 263 265 266 265 266 265 266 267 268 268 269 270 271 272 273 273 274 275 275 274 274 274 275 275 274 274 274 274 274 274 275 276 278 279
260 259 259 260 261 263 263 264 264 264 265 267 267 267 267 267 267 267 268 269 270 272 272 272 273 274 274 274 273 272 273 274 275 274 275 275 275 275 275 275 276 277 278
262 261 261 261 261 263 264 264 265 266 267 268 268 268 267 267 268 268 269 270 272 272 272 272 272 273 273 273 273 273 273 274 274 274 274 274 275 274 274 275 276 276 278
262 262 263 263 263 263 264 265 266 267 268 268 269 269 270 269 269 270 270 271 272 271 271 272 272 273 273 273 273 273 273 273 274 274 274 274 274 273 274 275 275 276 277
262 263 263 264 264 264 264 265 266 267 267 268 269 269 270 271 271 271 271 272 272 272 272 272 272 272 272 272 272 273 273 273 273 274 274 274 274 274 274 275 275 276 277
263 263 263 264 264 264 264 265 266 266 267 268 268 269 270 270 271 272 272 272 273 273 273 273 272 272 271 271 272 272 272 273 273 273 273 273 273 274 275 275 275 275 276
264 264 264 264 264 264 264 265 265 266 267 268 268 269 270 271 271 272 273 273 273 273 273 273 272 272 271 271 271 271 271 272 272 273 272 272 273 274 274 274 274 274 275
264 264 264 264 265 265 266 266 266 267 268 269 269 270 271 271 272 272 272 273 273 273 272 272 272 271 271 270 270 270 270 270 271 271 271 272 272 273 273 273 273 273 274
265 265 265 266 266 267 267 267 267 268 269 270 270 271 271 271 272 272 273 273 273 272 272 271 271 270 270 270 269 269 269 269 269 269 270 270 271 272 272 273 273 273 274
265 265 266 267 268 268 269 269 269 270 270 270 271 271 271 271 271 272 272 272 272 271 271 271 270 270 270 269 268 267 267 267 267 267 267 268 269 271 271 272 272 273 274
266 267 267 268 269 270 270 270 271 271 271 272 272 272 272 272 272 273 273 272 272 271 271 270 270 270 270 269 267 266 266 265 265 266 267 268 268 270 271 271 272 272 273
267 268 269 269 269 270 270 271 271 272 272 272 272 272 272 272 272 272 272 272 272 272 271 271 270 270 269 268 266 265 265 265 265 265 266 267 267 268 269 270 271 271 271
269 269 270 270 270 270 271 271 272 272 272 272 272 272 272 272 272 271 271 271 272 272 271 271 270 269 268 267 265 264 264 264 265 265 266 266 266 266 268 269 270 270 271
270 271 271 271 271 271 271 271 272 272 273 272 272 272 271 271 271 271 271 271 271 271 271 270 269 268 267 266 264 263 263 263 264 264 264 265 265 266 267 268 269 269 270
271 271 271 271 271 271 271 271 272 272 272 272 272 271 271 271 271 271 271 271 270 270 270 269 268 267 267 266 264 263 262 262 262 263 263 263 264 265 266 267 268 269 270
271 271 271 272 271 271 271 271 271 271 271 272 272 272 271 271 271 271 271 270 269 268 268 268 267 266 266 265 263 262 262 262 262 262 262 262 262 263 265 266 267 268 269
272 272 272 272 273 273 273 273 272 271 271 271 271 270 270 270 271 271 270 269 268 268 267 267 267 266 265 264 263 262 261 262 262 261 261 261 262 262 264 265 266 267 268
273 274 274 274 274 274 273 272 271 270 269 269 269 269 269 269 270 270 269 267 267 267 267 266 266 266 265 264 262 262 261 261 261 261 261 261 262 263 263 264 265 266 267
274 275 275 274 274 273 273 271 270 269 269 268 268 268 268 268 268 268 267 267 266 265 265 266 266 265 264 263 262 262 262 261 260 260 260 260 261 262 262 262 264 265 266
275 275 275 275 274 274 273 271 270 269 268 268 267 267 267 267 267 267 267 266 265 264 265 265 265 264 263 262 261 261 260 259 258 258 258 259 259 260 260 261 263 264 265
275 275 275 275 275 274 272 270 269 268 268 268 267 266 266 265 266 266 265 265 265 265 265 264 263 263 261 260 259 258 257 257 256 256 256 257 257 258 259 260 261 262 263
275 275 275 275 274 274 272 270 268 268 269 268 267 266 265 265 265 265 264 264 264 265 265 263 261 261 260 257 256 255 254 254 254 254 253 254 254 255 257 259 260 261 262
275 275 274 274 273 272 271 269 268 268 269 268 267 265 265 265 264 263 263 262 263 263 262 261 260 257 255 254 253 252 252 252 252 252 251 252 253 255 256 258 259 260 262
275 275 274 273 272 271 270 268 267 267 267 266 264 264 263 262 261 260 260 259 259 259 258 257 255 252 251 251 251 251 250 250 250 250 251 252 252 254 256 256 257 260 262
276 275 275 273 272 271 269 267 267 266 265 263 262 262 261 259 258 258 257 256 256 255 254 253 250 248 247 247 248 249 248 248 248 249 250 251 251 252 253 254 256 258 260
276 276 275 273 271 270 268 267 266 265 263 262 260 260 258 257 256 255 254 252 252 251 250 248 245 245 245 246 246 246 246 247 248 248 248 248 249 250 252 254 255 256 258